[[{"header":{"parameterUnit":"m.s-1","parameterCategory":1,"la1":30.2992,"la2":30.254,"lo1":-89.0895,"lo2":-89.0443,"dy":0.0025,"dx":0.0025,"nx":19,"ny":19,"refTime":"2026-05-06T03:00:00:Z","depth":0,"parameterNumber":2,"parameterNumberName":"U-component_of_WINDS"},"data":[0,0,0,-2.3079,-2.3081,-2.3181,-2.3182,-2.33,-2.3301,0,0,0,0,0,0,0,0,0,0,0,-2.3043,-2.3044,-2.3079,-2.3081,-2.3181,-2.3182,-2.33,-2.3301,0,0,0,0,0,0,0,0,0,0,0,-2.3043,-2.3043,-2.3044,-2.3081,-2.3181,-2.3182,-2.33,-2.3228,0,0,0,0,0,0,0,0,0,0,-2.3132,-2.3093,-2.3043,-2.3044,-2.3082,-2.3181,-2.3182,-2.3224,-2.3232,-2.3251,0,-2.3265,0,-2.3285,-2.3309,-2.3309,0,0,0,-2.3085,-2.3086,-2.3119,-2.3044,-2.3083,-2.3181,-2.3137,-2.3229,-2.3238,-2.3261,-2.3267,-2.3272,-2.3287,-2.3309,-2.331,-2.3401,-2.3401,0,0,-2.308,-2.3058,-2.3113,-2.3124,-2.3108,-2.3134,-2.314,-2.3234,-2.324,-2.3268,-2.3275,-2.3289,-2.331,-2.3311,-2.34,-2.3401,0,0,0,-2.3061,-2.3054,-2.3084,-2.3119,-2.3138,-2.3137,-2.3144,-2.3236,-2.3247,-2.3276,-2.3291,-2.3311,-2.3312,-2.34,-2.34,-2.3388,0,0,0,-2.3058,-2.3043,-2.3082,-2.3069,-2.3136,-2.3188,-2.3143,-2.3241,-2.3252,-2.329,-2.3311,-2.3313,-2.34,-2.34,-2.3388,-2.3386,0,0,0,-2.3038,-2.3041,-2.3053,-2.3068,-2.311,-2.3187,-2.3204,-2.3244,-2.3261,-2.3309,-2.3313,-2.34,-2.34,-2.3388,-2.3386,-2.3403,0,0,0,-2.3011,-2.3042,-2.3052,-2.3092,-2.3109,-2.3179,-2.3204,-2.3258,-2.3298,-2.3311,-2.34,-2.34,-2.3388,-2.3386,-2.3402,-2.3412,-2.3414,0,0,-2.3037,-2.3044,-2.3069,-2.3081,-2.3144,-2.3166,-2.3227,-2.3285,-2.331,-2.3369,-2.3371,-2.3388,-2.3386,-2.3403,-2.3436,-2.3437,0,0,0,-2.3069,-2.3087,-2.3108,-2.3145,-2.319,-2.3228,-2.3279,-2.3301,-2.3352,-2.3336,-2.34,-2.34,-2.341,-2.3416,-2.3417,-2.3427,-2.3402,-2.3402,-2.3402,-2.3073,-2.3103,-2.3146,-2.3188,-2.3224,-2.3276,-2.3308,-2.3346,-2.3367,-2.3381,-2.3398,-2.3415,-2.342,-2.3421,-2.3432,-2.3407,-2.3407,-2.3407,-2.3407,-2.3112,-2.3141,-2.3167,-2.3218,-2.325,-2.3293,-2.3345,-2.3358,-2.3403,-2.3404,-2.3415,-2.3413,-2.3422,-2.3432,-2.3406,-2.3407,-2.3407,-2.3407,-2.3407,-2.3116,-2.3135,-2.3161,-2.3217,-2.3258,-2.33,-2.3341,-2.337,-2.3397,-2.3407,-2.3428,-2.3428,-2.3431,-2.3416,-2.3416,-2.3416,-2.3416,-2.3416,-2.3416,-2.311,-2.3139,-2.3171,-2.3221,-2.3248,-2.3288,-2.3341,-2.3369,-2.3407,-2.3424,-2.3424,-2.3442,-2.3418,-2.341,-2.3417,-2.3417,-2.3417,-2.3416,-2.3416,-2.3136,-2.3134,-2.3182,-2.3209,-2.3271,-2.3308,-2.3344,-2.3398,-2.3425,-2.3445,-2.3462,-2.3439,-2.3448,-2.3447,-2.3441,-2.3456,-2.3456,-2.3456,-2.3456,-2.3138,-2.3146,-2.3201,-2.3242,-2.3287,-2.3324,-2.3377,-2.3419,-2.3462,-2.3481,-2.3483,-2.3478,-2.3476,-2.3486,-2.3484,-2.3479,-2.3503,-2.3503,-2.3503,-2.3155,-2.3168,-2.3207,-2.3249,-2.3299,-2.3341,-2.3392,-2.3439,-2.3488,-2.3505,-2.3496,-2.3494,-2.3486,-2.3482,-2.3497,-2.3494,-2.3484,0,0]},{"header":{"parameterUnit":"m.s-1","parameterCategory":1,"la1":30.2992,"la2":30.254,"lo1":-89.0895,"lo2":-89.0443,"dy":0.0025,"dx":0.0025,"nx":19,"ny":19,"refTime":"2026-05-06T03:00:00:Z","depth":0,"parameterNumber":3,"parameterNumberName":"V-component_of_WINDS"},"data":[0,0,0,7.097,7.0972,7.102,7.1021,7.1092,7.1093,0,0,0,0,0,0,0,0,0,0,0,7.0963,7.0963,7.097,7.0972,7.102,7.1021,7.1092,7.1093,0,0,0,0,0,0,0,0,0,0,0,7.0962,7.0963,7.0964,7.0972,7.102,7.1021,7.1092,7.1051,0,0,0,0,0,0,0,0,0,0,7.1002,7.1002,7.0963,7.0964,7.0972,7.102,7.1021,7.1049,7.1054,7.1074,0,7.1095,0,7.1095,7.1098,7.1098,0,0,0,7.0966,7.0998,7.1006,7.0964,7.0973,7.102,7.0997,7.1052,7.1057,7.108,7.1096,7.1099,7.1097,7.1099,7.1099,7.1242,7.1243,0,0,7.0963,7.0974,7.1002,7.1009,7.1004,7.0995,7.0998,7.1055,7.1072,7.1096,7.11,7.1098,7.1099,7.11,7.1241,7.1242,0,0,0,7.096,7.0973,7.0979,7.1007,7.1015,7.0997,7.1,7.1069,7.107,7.1101,7.1099,7.11,7.1101,7.124,7.1241,7.13,0,0,0,7.0958,7.097,7.0978,7.0985,7.1014,7.1043,7.1014,7.1067,7.1072,7.1098,7.11,7.1101,7.1239,7.1241,7.1296,7.1326,0,0,0,7.0957,7.097,7.098,7.0985,7.1007,7.1042,7.1046,7.1068,7.1072,7.1098,7.1102,7.1238,7.124,7.1293,7.132,7.1369,0,0,0,7.0959,7.1028,7.0981,7.1058,7.1007,7.1078,7.1045,7.1097,7.1127,7.11,7.1239,7.1241,7.1292,7.1316,7.1365,7.1412,7.1433,0,0,7.1052,7.104,7.1084,7.1043,7.1127,7.107,7.1162,7.1177,7.1168,7.1217,7.1221,7.1298,7.132,7.1368,7.1542,7.1559,0,0,0,7.1117,7.115,7.117,7.1201,7.1217,7.1233,7.1234,7.124,7.1283,7.1196,7.1327,7.134,7.1368,7.139,7.1404,7.1428,7.1252,7.1251,7.1251,7.1263,7.1252,7.1326,7.1322,7.1352,7.1355,7.1379,7.1388,7.1363,7.1395,7.141,7.1517,7.1544,7.1554,7.1579,7.1433,7.1433,7.1433,7.1433,7.14,7.1445,7.1417,7.1479,7.1466,7.1517,7.1524,7.1506,7.1551,7.1504,7.1528,7.1478,7.1572,7.1594,7.1438,7.1437,7.1436,7.1436,7.1436,7.1495,7.1515,7.1524,7.1571,7.1609,7.1601,7.1648,7.1633,7.162,7.1643,7.1659,7.1658,7.1656,7.1652,7.1652,7.1653,7.1653,7.1653,7.1654,7.159,7.1599,7.1641,7.1668,7.1689,7.1714,7.172,7.1739,7.1756,7.1742,7.1742,7.1717,7.1584,7.1552,7.1659,7.1658,7.1658,7.1657,7.1657,7.1733,7.17,7.1766,7.1787,7.182,7.1859,7.1842,7.1883,7.1896,7.192,7.1891,7.1795,7.178,7.1769,7.1742,7.1892,7.1892,7.1892,7.1892,7.1814,7.1807,7.1874,7.1909,7.1942,7.1935,7.201,7.2017,7.2018,7.2026,7.2002,7.1965,7.1954,7.1946,7.1931,7.1906,7.2094,7.2094,7.2095,7.1903,7.1899,7.1967,7.1971,7.1997,7.2019,7.209,7.2131,7.2124,7.2103,7.2032,7.2024,7.1964,7.1945,7.192,7.1897,7.1851,0,0]}]]